Location: Cheyres
(46.8153°N, 6.7877°E)
Time: 14:23:55
(UTC+00:00)

FENGYUN 1C DEB - Pass Details

Date: 07 December 2021
Orbit: 843 x 915 km, 99.0° (Epoch: 18 January)

Event Time Altitude Azimuth Distance (km) Brightness Sun altitude
Exits shadow 18:17:22 22° 8° (N) 1,807 ? -25.2°
Drops below altitude 10° 18:19:21 10° 358° (N) 2,489 ? -25.5°
Sets 18:21:49 0° 351° (N) 3,423 ? -25.9°
